Weather in Kermis

Russia / Ryazan Oblast     53°50′59″N   42°04′47″E
temp.,
°C
wind,
m/s
gust,
m/s
humid.,
%
clouds,
%
prec.,
mm/h
press.,
hPa
HPBL,
m
28 february, sun
sun2800:00−11nnw379699 0.1 1012277
03:00−13nw249791 0.1 1014126
06:00−13nw249793 0.1 1014103
09:00−11nw249389 0.1 1015210
12:00−7nw248696 0.1 1015527
15:00−6nnw358698 0.1 1015609
18:00−8nnw2294100 0.1 101634
21:00−9nne1296100 0.1 101929
1 march, mon
mon100:00−11n129699 0.1 102021
03:00−13n129668 0.1 102221
06:00−13n129663 0.0 102420
09:00−10nnw129274 0.1 1025140
12:00−6wnw228377 0.0 1025397
15:00−5wsw358985 0.0 1024396
18:00−8sw399588 0.0 1022249
21:00−3wsw5119294 0.1 1021630
2 march, tue
tue200:00−3sw51293100 0.1 1017463
03:00−1wsw61396100 0.7 1014683
06:00+1w61391100 0.2 1011873
09:00+1w61398100 0.2 1009740
12:00+1wnw61298100 0.1 1008850
15:00+2nw598994 0.4 1007951
18:00−2nw3119066 0.1 1007371
21:00−3nw3109358 0.1 1008332
3 march, wed
wed300:00−3wnw4109493 0.1 1009335
03:00−2nw5129196 0.3 1010669
06:00−4nw5129295 0.1 1010641
09:00−4nw5119092 0.1 1012610
12:00−1nw588590 0.1 1014922
15:000nnw587995 0.2 10141116
18:00−3nw3890100 0.2 1015251
21:00−5nw4119197 0.3 1018396
4 march, thu
thu400:00−8w35945 0.0 1018125
03:00−8wsw39922 0.0 1016226
06:00−7sw512900 0.0 1014326
09:00−4wsw6148534 0.0 1012524
12:000wsw7158260 0.0 1009717
15:00+1wsw8158054 0.0 1007903
18:00−1wsw6158495 0.0 1006845
21:000wsw6138792 0.0 1005736